Location: Heiligenberg
(48.5381°N, 7.3897°E)
Time: 22:37:10
(UTC+00:00)

Cosmos 1674 Rocket - Pass Details

Date: 26 May 2022
Orbit: 603 x 629 km, 82.5° (Epoch: 02 July)

Event Time Altitude Azimuth Distance (km) Brightness Sun altitude
Exits shadow 00:07:01 50° 198° (SSW) 774 3.6 -19.8°
Maximum altitude 00:08:06 83° 278° (W) 619 3.4 -19.8°
Drops below altitude 10° 00:12:28 10° 8° (N) 1,964 7.4 -19.6°
Sets 00:14:41 0° 9° (N) 2,871 8.6 -19.6°
